Location: Newark
(25.0000°N, 73.5000°E)
Time: 20:17:21
(UTC+00:00)

X-37B - Pass Details

Date: 24 June 2021
Orbit: 383 x 392 km, 45.0° (Epoch: 01 July)

Event Time Altitude Azimuth Distance (km) Brightness Sun altitude
Exits shadow 23:06:07 14° 173° (S) 1,195 2.8 -14.8°
Drops below altitude 10° 23:06:44 10° 166° (SSE) 1,398 3.2 -14.7°
Sets 23:08:59 0° 153° (SSE) 2,250 4.4 -14.3°
